Litchfield, IL

6:34 PM CDT on June 26, 2017 (GMT -0500)
Litchfield

Weather History for K3LF - June, 2013

Change the Weather History Date:

Sunday, June 23, 2013

  Actual Average (KALN) Record (KALN)
Temperature  
Mean Temperature 71 °F -  
Max Temperature 78 °F 83 °F 94 °F (2010)
Min Temperature 65 °F 65 °F 57 °F (2008)
Cooling Degree Days 6    
Growing Degree Days 21 (Base 50)    
Moisture  
Dew Point 67 °F    
Average Humidity 93    
Maximum Humidity 98    
Minimum Humidity 81    
Precipitation  
Precipitation 1.13 in - - ()
Sea Level Pressure  
Sea Level Pressure 30.05 in    
Wind  
Wind Speed 8 mph (SSE)    
Max Wind Speed 20 mph    
Max Gust Speed 24 mph    
Visibility 9 miles    
Events Rain , Thunderstorm    
Averages and records for this station are not official NWS values.
T = Trace of Precipitation, MM = Missing Value Source: NWS Daily Summary

Daily Weather History Graph

Daily Weather History Graph

Search for Another Location

Airport or City:

Trip Planner

Search our weather history database for the weather conditions in past years. The results will help you decide how hot, cold, wet, or windy it might be!

Date:

Astronomy

Jun. 23, 2013 Rise Set
Actual Time 5:33 AM CDT 8:28 PM CDT
Civil Twilight 5:01 AM CDT 9:00 PM CDT
Nautical Twilight 4:20 AM CDT 9:41 PM CDT
Astronomical Twilight 3:33 AM CDT 10:28 PM CDT
Moon 8:41 PM CDT (6/23) 5:50 AM CDT (6/23)
Length of Visible Light 15h 59m
Length of Day
14h 55m
Full, 100% of the Moon is Illuminated
Jun 23
Full
Jun 29
Last Quarter
Jul 8
New
Jul 15
First Quarter
Jul 22
Full

Hourly Weather History & Observations

Time (CDT) Temp. Dew Point Humidity Pressure Visibility Wind Dir Wind Speed Gust Speed Precip Events Conditions
12:15 AM 66.2 °F 64.9 °F 96% 30.03 in 10.0 mi SSE 4.6 mph - N/A   Clear
12:35 AM 66.2 °F 64.9 °F 96% 30.03 in 10.0 mi SE 6.9 mph - N/A   Clear
12:55 AM 66.6 °F 65.1 °F 95% 30.03 in 10.0 mi SE 6.9 mph - N/A   Clear
1:15 AM 66.4 °F 64.8 °F 95% 30.03 in 10.0 mi SE 8.1 mph - N/A   Clear
1:35 AM 66.4 °F 64.9 °F 95% 30.02 in 10.0 mi ESE 6.9 mph - N/A   Clear
1:55 AM 66.7 °F 64.9 °F 94% 30.02 in 10.0 mi SE 6.9 mph - N/A   Clear
2:15 AM 66.6 °F 65.3 °F 96% 30.02 in 10.0 mi SE 8.1 mph - N/A   Clear
2:35 AM 66.7 °F 65.5 °F 96% 30.03 in 10.0 mi SE 8.1 mph - N/A   Clear
2:55 AM 67.1 °F 65.7 °F 95% 30.03 in 10.0 mi SE 9.2 mph - N/A   Clear
3:15 AM 67.1 °F 65.8 °F 96% 30.03 in 10.0 mi SE 10.4 mph - N/A   Clear
3:35 AM 67.1 °F 65.7 °F 95% 30.03 in 10.0 mi SE 9.2 mph - N/A   Clear
3:55 AM 67.1 °F 65.7 °F 95% 30.03 in 7.0 mi SE 9.2 mph - N/A   Clear
4:15 AM 67.1 °F 65.7 °F 95% 30.04 in 10.0 mi SE 8.1 mph - N/A   Clear
4:35 AM 67.1 °F 65.7 °F 95% 30.04 in 10.0 mi SE 6.9 mph - N/A   Clear
4:55 AM 67.1 °F 65.8 °F 96% 30.06 in 10.0 mi SSE 6.9 mph - N/A   Clear
5:15 AM 66.7 °F 65.8 °F 97% 30.06 in 7.0 mi SE 6.9 mph - N/A   Scattered Clouds
5:35 AM 66.7 °F 65.8 °F 97% 30.06 in 7.0 mi SSE 5.8 mph - N/A   Clear
5:55 AM 66.7 °F 65.7 °F 96% 30.06 in 7.0 mi SE 6.9 mph - N/A   Clear
6:15 AM 67.1 °F 65.7 °F 95% 30.06 in 10.0 mi SE 5.8 mph - N/A   Scattered Clouds
6:35 AM 67.3 °F 65.8 °F 95% 30.06 in 10.0 mi SE 6.9 mph - N/A   Scattered Clouds
6:55 AM 68.0 °F 66.0 °F 93% 30.07 in 10.0 mi SSE 5.8 mph - N/A Thunderstorm Scattered Clouds
7:15 AM 69.8 °F 66.6 °F 89% 30.06 in 10.0 mi SSE 5.8 mph - N/A Thunderstorm Scattered Clouds
7:35 AM 70.2 °F 66.4 °F 88% 30.07 in 10.0 mi SSE 11.5 mph - N/A Thunderstorm Thunderstorm
7:55 AM 68.9 °F 66.7 °F 93% 30.07 in 2.5 mi South 13.8 mph - 0.13 in Rain , Thunderstorm Heavy Thunderstorms and Rain
8:15 AM 68.5 °F 66.0 °F 92% 30.07 in 10.0 mi South 11.5 mph - N/A Rain , Thunderstorm Light Thunderstorms and Rain
8:35 AM 67.5 °F 63.9 °F 88% 30.08 in 10.0 mi SSW 11.5 mph - 0.01 in Rain , Thunderstorm Light Thunderstorms and Rain
8:55 AM 66.7 °F 63.1 °F 88% 30.08 in 10.0 mi SW 9.2 mph - 0.02 in Rain , Thunderstorm Light Thunderstorms and Rain
9:15 AM 66.4 °F 63.0 °F 89% 30.08 in 10.0 mi South 6.9 mph - 0.01 in Rain , Thunderstorm Light Thunderstorms and Rain
9:35 AM 66.6 °F 63.7 °F 90% 30.07 in 10.0 mi South 8.1 mph - 0.02 in Rain , Thunderstorm Thunderstorms and Rain
9:55 AM 67.1 °F 64.6 °F 92% 30.07 in 10.0 mi SE 11.5 mph - 0.04 in Rain , Thunderstorm Thunderstorms and Rain
10:15 AM 67.3 °F 65.7 °F 95% 30.07 in 10.0 mi South 10.4 mph - N/A Rain Light Rain
10:35 AM 67.6 °F 65.7 °F 93% 30.07 in 10.0 mi SSW 6.9 mph - N/A Rain , Thunderstorm Light Thunderstorms and Rain
10:55 AM 69.3 °F 65.3 °F 87% 30.07 in 10.0 mi SSW 9.2 mph - N/A Rain , Thunderstorm Light Thunderstorms and Rain
11:15 AM 70.5 °F 66.4 °F 87% 30.07 in 10.0 mi South 4.6 mph - N/A   Clear
11:35 AM 69.8 °F 67.1 °F 91% 30.06 in 7.0 mi South 5.8 mph - 0.01 in Rain Light Rain
11:55 AM 69.6 °F 67.1 °F 92% 30.07 in 10.0 mi SSE 6.9 mph - 0.01 in Rain Light Rain
12:15 PM 70.2 °F 68.2 °F 93% 30.08 in 10.0 mi SE 10.4 mph - 0.01 in Rain Light Rain
12:35 PM 69.8 °F 68.4 °F 95% 30.07 in 7.0 mi SE 12.7 mph - 0.01 in Thunderstorm Scattered Clouds
12:55 PM 70.7 °F 68.7 °F 93% 30.07 in 7.0 mi SE 11.5 mph - 0.01 in   Clear
1:15 PM 73.2 °F 70.0 °F 90% 30.07 in 10.0 mi SE 12.7 mph - N/A   Clear
1:35 PM 73.4 °F 69.8 °F 88% 30.06 in 10.0 mi SE 15.0 mph 19.6 mph N/A   Scattered Clouds
1:55 PM 75.2 °F 71.1 °F 87% 30.06 in 10.0 mi SE 15.0 mph - N/A   Scattered Clouds
2:15 PM 76.3 °F 71.8 °F 86% 30.06 in 10.0 mi SE 16.1 mph - N/A   Scattered Clouds
2:35 PM 75.0 °F 70.0 °F 84% 30.04 in 10.0 mi SE 18.4 mph 24.2 mph N/A   Scattered Clouds
2:55 PM 74.7 °F 70.2 °F 86% 30.03 in 10.0 mi SE 13.8 mph 19.6 mph N/A   Clear
3:15 PM 75.2 °F 70.3 °F 85% 30.03 in 10.0 mi SE 16.1 mph 19.6 mph N/A   Clear
3:35 PM 75.9 °F 70.9 °F 84% 30.03 in 10.0 mi SE 12.7 mph - N/A   Clear
3:55 PM 76.6 °F 71.2 °F 83% 30.02 in 10.0 mi SE 10.4 mph - N/A   Clear
4:15 PM 77.7 °F 71.6 °F 81% 30.01 in 10.0 mi SE 13.8 mph 18.4 mph N/A   Clear
4:35 PM 77.9 °F 71.6 °F 81% 30.00 in 10.0 mi SE 15.0 mph - N/A   Clear
4:55 PM 77.0 °F 71.6 °F 83% 30.01 in 10.0 mi SSE 10.4 mph - N/A   Clear
5:15 PM 76.6 °F 71.6 °F 84% 30.01 in 10.0 mi SE 10.4 mph - N/A   Scattered Clouds
5:35 PM 76.3 °F 71.6 °F 85% 30.03 in 10.0 mi South 4.6 mph - N/A   Scattered Clouds
5:55 PM 67.3 °F 65.5 °F 94% 30.07 in 2.0 mi NNW 17.3 mph 24.2 mph 0.10 in Rain , Thunderstorm Heavy Thunderstorms and Rain
6:15 PM 65.5 °F 64.8 °F 98% 30.06 in 1.8 mi North 6.9 mph - 0.33 in Rain , Thunderstorm Heavy Thunderstorms and Rain
6:35 PM 65.7 °F 65.1 °F 98% 30.03 in 5.0 mi East 3.5 mph - 0.44 in Rain , Thunderstorm Light Thunderstorms and Rain
6:55 PM 66.0 °F 65.5 °F 98% 30.04 in 7.0 mi SSE 8.1 mph - 0.46 in Rain , Thunderstorm Thunderstorms and Rain
7:15 PM 66.2 °F 65.3 °F 97% 30.04 in 5.0 mi South 6.9 mph - 0.04 in Rain , Thunderstorm Rain
7:35 PM 66.2 °F 65.3 °F 97% 30.04 in 7.0 mi SSE 6.9 mph - 0.09 in Rain Light Rain
7:55 PM 66.2 °F 65.7 °F 98% 30.03 in 5.0 mi SSE 9.2 mph - 0.16 in Rain , Thunderstorm Heavy Thunderstorms and Rain
8:15 PM 66.4 °F 65.8 °F 98% 30.02 in 7.0 mi SSE 9.2 mph - 0.04 in Rain , Thunderstorm Thunderstorms and Rain
8:35 PM 66.4 °F 65.8 °F 98% 30.02 in 7.0 mi SE 12.7 mph - 0.09 in Rain , Thunderstorm Rain
8:55 PM 66.4 °F 65.5 °F 97% 30.04 in 7.0 mi SSE 6.9 mph - 0.15 in Rain , Thunderstorm Rain
9:15 PM 66.4 °F 65.7 °F 98% 30.06 in 10.0 mi SE 6.9 mph - 0.02 in Rain Light Rain
9:35 PM 66.4 °F 65.5 °F 97% 30.06 in 10.0 mi SSE 6.9 mph - 0.04 in Rain , Thunderstorm Light Thunderstorms and Rain
9:55 PM 66.2 °F 65.3 °F 97% 29.99 in 10.0 mi SSE 19.6 mph - 0.05 in Rain Light Rain
10:15 PM 66.2 °F 65.3 °F 97% 29.99 in 10.0 mi SSE 13.8 mph - N/A Rain Light Rain
10:35 PM 67.1 °F 65.5 °F 95% 30.04 in 10.0 mi SSW 5.8 mph 10.4 mph N/A   Scattered Clouds
10:55 PM 67.1 °F 65.7 °F 95% 30.03 in 10.0 mi SW 6.9 mph - N/A   Clear
11:15 PM 67.1 °F 65.7 °F 95% 30.04 in 10.0 mi South 6.9 mph - N/A   Clear
11:35 PM 67.1 °F 65.8 °F 96% 30.04 in 10.0 mi SSW 8.1 mph - N/A   Clear
11:55 PM 66.7 °F 65.7 °F 96% 30.05 in 10.0 mi South 4.6 mph - N/A   Clear